Tracking 19219 objects as of 20-Jul-2018
HD Live streaming from Space Station
objects crossing your sky now

GALAXY 1R

Track GALAXY 1R now!
GALAXY 1R is classified as:


NORAD ID: 23016
Int'l Code: 1994-013A
Perigee: 36,077.8 km
Apogee: 36,105.4 km
Inclination: 9.4 °
Period: 1,451.3 minutes
Semi major axis: 42462 km
RCS: 8.3555 m2 (large)
Launch date: February 19, 1994
Source: United States (US)
Launch site: AIR FORCE EASTERN TEST RANGE (AFETR)

24 C-band; North America, Caribbean.
aabbcc
Your satellite tracking list
Your tracking list is empty




NASA's NSSDC Master Catalog

Two Line Element Set (TLE):
1 23016U 94013A   18201.10690754  .00000057  00000-0  00000+0 0  9994
2 23016   9.4372  40.9851 0003253 263.6932  96.3082  0.99218693 88551
Source of the keplerian elements: AFSPC